AKDT,Max TemperatureF,Mean TemperatureF,Min TemperatureF,Max Dew PointF,MeanDew PointF,Min DewpointF,Max Humidity, Mean Humidity, Min Humidity, Max Sea Level PressureIn, Mean Sea Level PressureIn, Min Sea Level PressureIn, Max VisibilityMiles, Mean VisibilityMiles, Min VisibilityMiles, Max Wind SpeedMPH, Mean Wind SpeedMPH, Max Gust SpeedMPH,PrecipitationIn, CloudCover, Events, WindDirDegrees
2013-4-1,43,30,16,20,16,13,92,60,22,30.12,30.01,29.95,10,10,10,8,2,16,0.00,2,,350
2013-4-2,42,26,9,19,13,7,88,57,24,30.17,30.11,30.02,10,10,6,8,1,,0.00,1,,317
2013-4-3,43,35,27,21,18,16,69,51,35,30.27,30.24,30.18,10,10,9,7,2,,0.00,4,Snow,333
2013-4-4,39,28,18,16,8,1,78,45,19,30.23,30.03,29.80,10,10,10,12,5,17,0.00,0,,11
2013-4-5,34,26,18,2,-2,-6,40,30,20,29.79,29.61,29.51,10,10,10,10,5,,0.00,0,,4
2013-4-6,30,16,1,23,12,-4,93,67,29,29.52,29.47,29.44,10,8,2,7,2,,0.00,7,Snow,28
2013-4-7,26,19,9,16,10,0,86,71,30,29.81,29.62,29.48,10,8,2,10,2,,0.00,7,Snow,204
2013-4-8,26,13,0,18,9,-5,93,72,46,29.81,29.50,29.24,10,7,2,6,1,,0.08,7,Snow,305
2013-4-9,21,14,3,18,9,-5,93,76,27,29.45,29.15,29.05,10,4,1,9,6,,0.03,7,Snow,193
2013-4-10,19,4,-11,11,-2,-17,83,64,35,29.95,29.76,29.48,10,10,3,8,1,,0.00,4,,212
2013-4-11,25,7,-11,5,-3,-16,87,61,31,30.13,30.06,29.92,10,10,2,8,2,,0.00,1,Snow,302
2013-4-12,27,15,3,-1,-4,-9,69,38,16,30.15,30.11,30.08,10,10,8,21,7,31,0.00,0,,18
2013-4-13,35,22,10,2,-1,-4,45,32,13,30.42,30.28,30.16,10,10,10,12,7,22,0.00,0,,8
2013-4-14,39,21,5,11,3,-2,73,40,14,30.51,30.47,30.43,10,10,10,8,3,,0.00,1,,314
2013-4-15,36,26,17,14,10,7,74,47,27,30.44,30.39,30.33,10,10,10,16,5,26,0.00,3,,20
2013-4-16,36,24,12,7,5,3,68,39,18,30.33,30.19,30.12,10,10,10,10,5,18,0.00,0,,8
2013-4-17,39,29,19,12,8,3,58,40,25,30.19,30.12,30.09,10,10,10,12,5,22,0.00,2,,7
2013-4-18,39,29,19,11,8,5,54,37,23,30.20,30.17,30.13,10,10,2,21,8,29,0.00,0,,11
2013-4-19,48,36,23,14,9,6,50,33,14,30.32,30.27,30.18,10,10,10,9,6,,0.00,0,,18
2013-4-20,45,31,17,20,12,8,78,42,20,30.42,30.39,30.33,10,10,10,6,2,,0.00,0,,314
2013-4-21,46,30,14,21,15,11,88,54,25,30.42,30.39,30.34,10,10,10,9,2,,0.00,0,,306
2013-4-22,46,32,19,21,15,12,82,49,15,30.54,30.50,30.42,10,10,10,7,2,,0.00,0,,288
2013-4-23,45,36,28,30,23,19,79,58,38,30.51,30.44,30.33,10,10,10,5,1,,0.00,7,,293
2013-4-24,42,38,33,35,32,26,93,81,57,30.31,30.04,29.88,10,8,1,14,5,21,0.08,7,Rain-Snow,121
2013-4-25,39,32,26,19,9,3,69,36,14,29.92,29.88,29.85,10,10,10,25,10,41,0.00,0,,24
2013-4-26,41,32,24,13,7,2,45,32,14,29.87,29.64,29.52,10,10,10,14,8,20,0.00,2,,6
2013-4-27,39,34,28,12,8,1,47,34,17,30.00,29.79,29.57,10,10,10,21,10,33,0.00,1,,28
2013-4-28,41,31,21,14,7,-1,55,33,16,30.16,30.08,30.01,10,10,10,12,4,18,0.00,0,,18
2013-4-29,39,28,18,21,14,10,77,49,22,30.19,30.16,30.10,10,10,10,7,2,,0.00,3,,258
2013-4-30,36,33,30,34,30,20,100,89,59,30.10,29.93,29.83,10,3,0,6,1,,0.12,8,Fog-Snow,24